TimeHST,TemperatureF,Dew PointF,Humidity,Sea Level PressureIn,VisibilityMPH,Wind Direction,Wind SpeedMPH,Gust SpeedMPH,PrecipitationIn,Events,Conditions,WindDirDegrees,DateUTC
12:01 AM,46.4,46.4,100,30.31,3.0,Calm,Calm,-,N/A,Fog,Patches of Fog,0,2013-11-19 10:01:00
12:16 AM,44.6,42.8,93,30.31,2.2,North,3.5,-,N/A,Fog,Patches of Fog,350,2013-11-19 10:16:00
12:21 AM,44.6,39.2,81,30.31,3.0,North,3.5,-,N/A,Fog,Fog,10,2013-11-19 10:21:00
12:26 AM,46.4,41.0,81,30.31,8.0,NNE,1.2,-,N/A,Fog,Fog,30,2013-11-19 10:26:00
12:56 AM,48.2,46.8,95,30.30,2.5,ESE,4.6,12.7,N/A,,Mostly Cloudy,120,2013-11-19 10:56:00
1:01 AM,48.2,46.4,93,30.29,1.5,NNW,2.3,12.7,N/A,,Mostly Cloudy,340,2013-11-19 11:01:00
1:16 AM,48.2,46.4,93,30.29,0.6,West,1.2,-,N/A,,Mostly Cloudy,270,2013-11-19 11:16:00
1:21 AM,46.4,46.4,100,30.28,0.2,West,2.3,-,N/A,Fog,Patches of Fog,270,2013-11-19 11:21:00
1:37 AM,44.6,44.6,100,30.27,0.1,Calm,Calm,-,N/A,Fog,Light Drizzle,0,2013-11-19 11:37:00
1:47 AM,46.4,46.4,100,30.28,4.0,West,2.3,-,N/A,Fog-Rain,Light Rain Showers,270,2013-11-19 11:47:00
1:57 AM,49.3,42.4,77,30.28,8.0,SSW,3.5,-,0.00,Fog-Rain,Light Rain Showers,200,2013-11-19 11:57:00
1:58 AM,50.0,42.8,76,30.28,8.0,ESE,3.5,-,N/A,Fog,Patches of Fog,120,2013-11-19 11:58:00
2:56 AM,50.9,39.0,64,30.27,12.0,WSW,3.5,-,N/A,,Clear,250,2013-11-19 12:56:00
3:56 AM,45.1,39.7,81,30.27,6.0,ESE,3.5,-,N/A,,Clear,110,2013-11-19 13:56:00
4:56 AM,43.9,41.4,91,30.28,4.0,ESE,4.6,-,N/A,,Clear,120,2013-11-19 14:56:00
5:56 AM,45.9,44.2,94,30.28,5.0,ESE,2.3,-,N/A,,Clear,110,2013-11-19 15:56:00
6:56 AM,45.7,42.8,90,30.30,6.0,ESE,4.6,-,N/A,,Clear,110,2013-11-19 16:56:00
7:56 AM,55.6,42.4,61,30.32,8.0,ESE,2.3,-,N/A,,Clear,120,2013-11-19 17:56:00
8:56 AM,60.4,39.7,46,30.32,12.0,South,2.3,-,N/A,,Clear,170,2013-11-19 18:56:00
9:56 AM,66.9,37.8,34,30.32,12.0,WSW,8.1,-,N/A,,Clear,240,2013-11-19 19:56:00
10:56 AM,66.7,42.1,41,30.31,12.0,WSW,6.9,-,N/A,,Clear,250,2013-11-19 20:56:00
11:56 AM,69.8,43.2,38,30.29,12.0,WSW,5.8,19.6,N/A,,Clear,250,2013-11-19 21:56:00
12:56 PM,68.9,54.5,60,30.26,9.0,WSW,12.7,19.6,N/A,,Clear,250,2013-11-19 22:56:00
1:56 PM,67.1,53.1,61,30.25,8.0,West,9.2,-,N/A,,Clear,260,2013-11-19 23:56:00
2:56 PM,66.9,53.2,61,30.24,8.0,WSW,6.9,-,N/A,,Partly Cloudy,250,2013-11-20 00:56:00
3:56 PM,66.7,53.4,62,30.24,8.0,West,6.9,-,N/A,,Clear,260,2013-11-20 01:56:00
4:56 PM,63.1,55.2,75,30.26,8.0,West,8.1,-,N/A,,Clear,260,2013-11-20 02:56:00
5:56 PM,59.2,55.4,87,30.28,5.0,WSW,2.3,-,N/A,,Clear,240,2013-11-20 03:56:00
6:56 PM,57.7,51.3,79,30.30,5.0,ESE,1.2,-,N/A,,Clear,120,2013-11-20 04:56:00
7:56 PM,55.0,44.8,68,30.32,8.0,ESE,4.6,-,N/A,,Clear,120,2013-11-20 05:56:00
8:56 PM,53.8,38.3,56,30.33,11.0,ESE,4.6,-,N/A,,Clear,110,2013-11-20 06:56:00
9:56 PM,52.7,38.5,58,30.33,12.0,ESE,1.2,-,N/A,,Clear,120,2013-11-20 07:56:00
10:56 PM,55.0,34.7,46,30.32,12.0,NNW,4.6,-,N/A,,Clear,340,2013-11-20 08:56:00
11:56 PM,49.1,36.7,62,30.33,12.0,East,3.5,-,N/A,,Clear,100,2013-11-20 09:56:00